When you browse on this site, cookies collect data to enhance your experience and personalize the content and advertising you see.
Visit our Privacy Policy to learn more. By continuing to use the site, you agree to this use of cookies and data.
  • In Deutschland
  • Länderverzeichnis
  • Für 7 Tage
  • Wassertemperatur
  • Wetterkarte
  • Widgets
  • user-avatar
    Anmelden

    Stündliche Wetter Blagoewgrad

    Heute, 26 Mai, Dienstag

    Zeit Temperatur Niederschläge Wind Luftdruck Luftfeuchtigkeit
    00:00 +9°C° 0 mm 1 m/S 724 mmHg 84%
    01:00 +9°C° 0 mm 1 m/S 724 mmHg 85%
    02:00 +8°C° 0 mm 1 m/S 723 mmHg 86%
    03:00 +8°C° 0 mm 1 m/S 723 mmHg 87%
    04:00 +8°C° 0 mm 1 m/S 723 mmHg 88%
    05:00 +8°C° 0 mm 1 m/S 723 mmHg 89%
    06:00 +9°C° 0 mm 1 m/S 723 mmHg 85%
    07:00 +11°C° 0 mm 1 m/S 723 mmHg 80%
    08:00 +13°C° 0 mm 1 m/S 723 mmHg 73%
    09:00 +14°C° 0.2 mm 2 m/S 723 mmHg 71%
    10:00 +15°C° 0.2 mm 2 m/S 723 mmHg 69%
    11:00 +16°C° 0.2 mm 2 m/S 723 mmHg 67%
    12:00 +16°C° 0.8 mm 2 m/S 723 mmHg 68%
    13:00 +17°C° 0.8 mm 2 m/S 723 mmHg 69%
    14:00 +17°C° 0.8 mm 2 m/S 722 mmHg 70%
    15:00 +17°C° 0.9 mm 2 m/S 722 mmHg 71%
    16:00 +16°C° 0.9 mm 3 m/S 722 mmHg 73%
    17:00 +16°C° 0.9 mm 3 m/S 721 mmHg 75%
    18:00 +14°C° 0.6 mm 3 m/S 721 mmHg 79%
    19:00 +13°C° 0.6 mm 2 m/S 721 mmHg 84%
    20:00 +12°C° 0.6 mm 2 m/S 722 mmHg 89%
    21:00 +10°C° 0.1 mm 2 m/S 722 mmHg 89%
    22:00 +10°C° 0.1 mm 2 m/S 722 mmHg 89%
    23:00 +10°C° 0.1 mm 1 m/S 723 mmHg 90%

    Morgen, 27 Mai, Mittwoch

    Zeit Temperatur Niederschläge Wind Luftdruck Luftfeuchtigkeit
    00:00 +10°C° 0 mm 1 m/S 722 mmHg 91%
    01:00 +9°C° 0 mm 1 m/S 722 mmHg 92%
    02:00 +9°C° 0 mm 1 m/S 722 mmHg 92%
    03:00 +9°C° 0 mm 1 m/S 722 mmHg 93%
    04:00 +8°C° 0 mm 1 m/S 722 mmHg 93%
    05:00 +8°C° 0 mm 1 m/S 722 mmHg 94%
    06:00 +9°C° 0 mm 2 m/S 723 mmHg 90%
    07:00 +10°C° 0 mm 2 m/S 723 mmHg 87%
    08:00 +13°C° 0 mm 2 m/S 723 mmHg 83%
    09:00 +14°C° 0.3 mm 2 m/S 723 mmHg 78%
    10:00 +16°C° 0.3 mm 3 m/S 723 mmHg 73%
    11:00 +17°C° 0.3 mm 3 m/S 723 mmHg 68%
    12:00 +17°C° 0.8 mm 3 m/S 723 mmHg 67%
    13:00 +18°C° 0.8 mm 3 m/S 723 mmHg 67%
    14:00 +18°C° 0.8 mm 4 m/S 723 mmHg 66%
    15:00 +18°C° 1 mm 4 m/S 722 mmHg 68%
    16:00 +17°C° 1 mm 4 m/S 722 mmHg 71%
    17:00 +17°C° 1 mm 4 m/S 722 mmHg 73%
    18:00 +14°C° 0.5 mm 3 m/S 722 mmHg 78%
    19:00 +14°C° 0.5 mm 2 m/S 722 mmHg 82%
    20:00 +12°C° 0.5 mm 2 m/S 722 mmHg 87%
    21:00 +10°C° 0.1 mm 2 m/S 722 mmHg 88%
    22:00 +10°C° 0.1 mm 1 m/S 723 mmHg 89%
    23:00 +10°C° 0.1 mm 1 m/S 723 mmHg 89%

    übermorgen, 28 Mai, Donnerstag

    Zeit Temperatur Niederschläge Wind Luftdruck Luftfeuchtigkeit
    00:00 +9°C° 0 mm 1 m/S 723 mmHg 89%
    01:00 +9°C° 0 mm 1 m/S 723 mmHg 89%
    02:00 +9°C° 0 mm 1 m/S 722 mmHg 89%
    03:00 +9°C° 0 mm 1 m/S 722 mmHg 89%
    04:00 +9°C° 0 mm 1 m/S 722 mmHg 90%
    05:00 +9°C° 0 mm 1 m/S 722 mmHg 91%
    06:00 +10°C° 0 mm 1 m/S 722 mmHg 89%
    07:00 +12°C° 0 mm 1 m/S 722 mmHg 87%
    08:00 +13°C° 0 mm 1 m/S 722 mmHg 85%
    09:00 +14°C° 0.5 mm 2 m/S 722 mmHg 80%
    10:00 +16°C° 0.5 mm 2 m/S 722 mmHg 76%
    11:00 +17°C° 0.5 mm 2 m/S 722 mmHg 71%
    12:00 +17°C° 0.9 mm 2 m/S 722 mmHg 71%
    13:00 +18°C° 0.9 mm 3 m/S 721 mmHg 71%
    14:00 +18°C° 0.9 mm 3 m/S 721 mmHg 71%
    15:00 +18°C° 0.6 mm 3 m/S 721 mmHg 72%
    16:00 +17°C° 0.6 mm 3 m/S 720 mmHg 72%
    17:00 +17°C° 0.6 mm 2 m/S 720 mmHg 73%
    18:00 +16°C° 0.2 mm 2 m/S 720 mmHg 78%
    19:00 +14°C° 0.2 mm 2 m/S 720 mmHg 83%
    20:00 +13°C° 0.2 mm 1 m/S 720 mmHg 87%
    21:00 +12°C° 0 mm 1 m/S 720 mmHg 88%
    22:00 +11°C° 0 mm 1 m/S 720 mmHg 89%
    23:00 +11°C° 0 mm 1 m/S 720 mmHg 89%

    29 Mai, Freitag

    Zeit Temperatur Niederschläge Wind Luftdruck Luftfeuchtigkeit
    00:00 +11°C° 0 mm 1 m/S 720 mmHg 90%
    01:00 +11°C° 0 mm 1 m/S 720 mmHg 91%
    02:00 +10°C° 0 mm 1 m/S 720 mmHg 92%
    03:00 +10°C° 0 mm 1 m/S 720 mmHg 92%
    04:00 +10°C° 0 mm 1 m/S 720 mmHg 92%
    05:00 +10°C° 0 mm 1 m/S 720 mmHg 92%
    06:00 +11°C° 0 mm 1 m/S 720 mmHg 87%
    07:00 +13°C° 0 mm 1 m/S 720 mmHg 83%
    08:00 +15°C° 0 mm 1 m/S 720 mmHg 79%
    09:00 +15°C° 0.4 mm 2 m/S 720 mmHg 76%
    10:00 +16°C° 0.4 mm 2 m/S 720 mmHg 72%
    11:00 +17°C° 0.4 mm 2 m/S 720 mmHg 69%
    12:00 +17°C° 0.6 mm 2 m/S 720 mmHg 67%
    13:00 +18°C° 0.6 mm 3 m/S 719 mmHg 65%
    14:00 +18°C° 0.6 mm 3 m/S 719 mmHg 63%
    15:00 +18°C° 0.3 mm 3 m/S 719 mmHg 63%
    16:00 +18°C° 0.3 mm 3 m/S 719 mmHg 63%
    17:00 +18°C° 0.3 mm 3 m/S 718 mmHg 63%
    18:00 +16°C° 0.1 mm 2 m/S 719 mmHg 70%
    19:00 +14°C° 0.1 mm 2 m/S 719 mmHg 77%
    20:00 +12°C° 0.1 mm 1 m/S 719 mmHg 84%
    21:00 +11°C° 0 mm 1 m/S 719 mmHg 85%
    22:00 +11°C° 0 mm 1 m/S 719 mmHg 86%
    23:00 +10°C° 0 mm 1 m/S 720 mmHg 86%

    30 Mai, Samstag

    Zeit Temperatur Niederschläge Wind Luftdruck Luftfeuchtigkeit
    00:00 +10°C° 0 mm 1 m/S 720 mmHg 87%
    01:00 +10°C° 0 mm 1 m/S 719 mmHg 88%
    02:00 +9°C° 0 mm 1 m/S 719 mmHg 89%
    03:00 +10°C° 0.1 mm 1 m/S 719 mmHg 89%
    04:00 +10°C° 0.1 mm 1 m/S 720 mmHg 90%
    05:00 +10°C° 0.1 mm 1 m/S 720 mmHg 91%
    06:00 +10°C° 0.5 mm 1 m/S 720 mmHg 91%
    07:00 +10°C° 0.5 mm 1 m/S 720 mmHg 92%
    08:00 +11°C° 0.5 mm 1 m/S 720 mmHg 92%
    09:00 +12°C° 0.3 mm 1 m/S 720 mmHg 86%
    10:00 +13°C° 0.3 mm 1 m/S 720 mmHg 80%
    11:00 +14°C° 0.3 mm 1 m/S 720 mmHg 74%
    12:00 +15°C° 0.6 mm 1 m/S 720 mmHg 71%
    13:00 +15°C° 0.6 mm 1 m/S 719 mmHg 69%
    14:00 +15°C° 0.6 mm 2 m/S 719 mmHg 66%
    15:00 +15°C° 0.4 mm 2 m/S 719 mmHg 65%
    16:00 +16°C° 0.4 mm 2 m/S 719 mmHg 63%
    17:00 +16°C° 0.4 mm 2 m/S 719 mmHg 62%
    18:00 +14°C° 0.2 mm 2 m/S 719 mmHg 70%
    19:00 +12°C° 0.2 mm 2 m/S 719 mmHg 78%
    20:00 +10°C° 0.2 mm 2 m/S 719 mmHg 86%
    21:00 +10°C° 0 mm 1 m/S 720 mmHg 87%
    22:00 +9°C° 0 mm 1 m/S 720 mmHg 88%
    23:00 +9°C° 0 mm 1 m/S 720 mmHg 88%

    31 Mai, Sonntag

    Zeit Temperatur Niederschläge Wind Luftdruck Luftfeuchtigkeit
    00:00 +9°C° 0 mm 1 m/S 720 mmHg 88%
    01:00 +9°C° 0 mm 1 m/S 720 mmHg 89%
    02:00 +9°C° 0 mm 1 m/S 720 mmHg 89%
    03:00 +8°C° 0 mm 1 m/S 720 mmHg 89%
    04:00 +8°C° 0 mm 1 m/S 720 mmHg 90%
    05:00 +8°C° 0 mm 1 m/S 720 mmHg 90%
    06:00 +10°C° 0 mm 1 m/S 720 mmHg 86%
    07:00 +12°C° 0 mm 1 m/S 720 mmHg 81%
    08:00 +13°C° 0 mm 1 m/S 720 mmHg 76%
    09:00 +15°C° 0 mm 1 m/S 720 mmHg 71%
    10:00 +16°C° 0 mm 1 m/S 720 mmHg 67%
    11:00 +18°C° 0 mm 1 m/S 720 mmHg 62%
    12:00 +19°C° 0.3 mm 1 m/S 720 mmHg 60%
    13:00 +19°C° 0.3 mm 2 m/S 720 mmHg 58%
    14:00 +19°C° 0.3 mm 2 m/S 720 mmHg 55%
    15:00 +19°C° 0.4 mm 2 m/S 719 mmHg 58%
    16:00 +19°C° 0.4 mm 2 m/S 719 mmHg 61%
    17:00 +19°C° 0.4 mm 2 m/S 719 mmHg 63%
    18:00 +18°C° 0.5 mm 1 m/S 719 mmHg 70%
    19:00 +15°C° 0.5 mm 1 m/S 719 mmHg 76%
    20:00 +12°C° 0.5 mm 0 m/S 719 mmHg 83%
    21:00 +12°C° 0.1 mm 0 m/S 719 mmHg 83%
    22:00 +13°C° 0.1 mm 1 m/S 719 mmHg 84%
    23:00 +12°C° 0.1 mm 1 m/S 720 mmHg 84%
    Mehr zeigen